SIRIUS 1 1 26390U 00035A 10065.42707428 +.00000038 +00000-0 +10000-3 0 06536 2 26390 061.2887 252.9659 2691967 269.4797 059.8816 01.00274921035478 SIRIUS 2 1 26483U 00051A 10067.09225766 -.00000013 +00000-0 +10000-3 0 03173 2 26483 063.7706 133.0077 2648939 270.0513 060.0114 01.00283222034823 SIRIUS 3 1 26626U 00077A 10065.76453468 -.00000161 +00000-0 +10000-3 0 05620 2 26626 064.2645 012.7365 2669314 270.5611 059.3064 01.00277625033944 XM-2 1 26724U 01012A 10063.50000000 -.00000220 00000-0 00000+0 0 7318 2 26724 000.0760 253.0770 0000570 001.3430 002.5130 01.00272957 32901 XM-1 1 26761U 01018A 10064.00000000 -.00000220 00000-0 00000+0 0 5218 2 26761 000.0870 256.6380 0000422 359.4880 181.3700 01.00271594 32389 XM-3 1 28626U 05008A 10064.00000000 -.00000220 00000-0 00000+0 0 6977 2 28626 000.0270 140.4830 0000158 212.3180 084.7420 01.00272399 18429 XM-4 1 29520U 06049A 10067.26211252 -.00000040 +00000-0 +10000-3 0 04772 2 29520 000.0277 119.2889 0000400 213.9710 171.9270 01.00273425012397